一网星座-0263星 (ONEWEB-0263 )

导读

ONEWEB-0263是英国OneWeb低轨宽带星座的卫星,于北京时间2021年7月1日发射入轨。该卫星运行在约1200公里高度的近地轨道,配备Ku和Ka波段通信天线,采用氙等离子体推力器,发射重量约147.5公斤,设计寿命超7年。作为OneWeb全球星座组网的组成部分,它可为偏远地区、航空海事等场景提供低时延宽带互联网接入服务,助力全球无缝网络覆盖。

Basic Information
目录编号:
48981
目录名称:
ONEWEB-0263
国际标识:
2021-060Q
轨道中心:
EARTH
卫星名称:
一网星座-0263星
卫星全名:
一网星座-0263星 (ONEWEB-0263 )
卫星状态:
在轨 (已飞行1807 天)
发射日期:
2021-07-01 UTC
国别 :
英国 (GB)
星等 :
--
Orbit Information
数据来源 国际轨道数据 AOE轨道数据
星历时间 2026-06-12T12:58:30+0800
19小时前
查看轨道信息
2026-06-13T00:00:00+0800
7小时前
查看轨道信息
半长轴 7575.892km 7575.888km
偏心率 0.0001715 0.0001616
轨道倾角 87.910° 87.910°
近地点辐角 101.816° 112.024°
升交点赤经 229.770° 229.680°
平近点角 258.316° 264.170°
近地点 1196.455km 1196.526km
远地点 1199.055km 1198.976km
周期 109.373分钟 109.373分钟
每日圈数 13.165948 13.165959
Detailed Information
平衡模式:
三轴稳定
覆盖范围:
全球
运营商:
一网卫星公司
运营商所在国:
英国
制造商(研发单位):
一网卫星公司
制造商所在国:
英国
使用方式:
暂无
Satellite Introduction
OneWeb卫星网络由648颗重约125公斤的微型卫星组成,运行在1200公里的轨道上。 每颗卫星都能够提供至少每秒8千兆位的吞吐量,以使用其高吞吐量的Ku频段有效载荷为家庭和移动平台提供互联网接入。该卫星仍在工作。
2D Orbit Map
3D Orbit Map
Orbit Altitude Analysis Chart
Orbit Inclination Analysis Chart
Orbit Comprehensive Analysis Chart
View Comprehensive Chart